YO8SDE-8 Weather Reports


time (UTC)temp
C
wind
direction
speed
KPH
gust
KPH
rain 1hr
cm
rain 24hr
cm
rain mn
cm
humidity
%
barometer
mb
20260506135058 32 135 17.7 20.9 0.00 0.00 0.00 21 999.0
20260506134558 31 112 20.9 25.7 0.00 0.00 0.00 20 999.0
20260506134058 32 135 19.3 29.0 0.00 0.00 0.00 20 998.9
20260506133558 32 135 25.7 27.4 0.00 0.00 0.00 21 998.6
20260506133058 32 112 14.5 29.0 0.00 0.00 0.00 21 998.8
20260506132558 32 135 17.7 25.7 0.00 0.00 0.00 21 998.7
20260506132058 32 157 12.9 27.4 0.00 0.00 0.00 21 998.7
20260506131558 32 135 17.7 25.7 0.00 0.00 0.00 21 998.9
20260506131058 32 135 12.9 24.1 0.00 0.00 0.00 21 998.9
20260506130558 33 112 8.0 32.2 0.00 0.00 0.00 20 998.9
20260506130058 33 112 32.2 32.2 0.00 0.00 0.00 21 999.0
20260506125558 32 112 9.7 19.3 0.00 0.00 0.00 20 999.0
20260506125058 32 135 17.7 25.7 0.00 0.00 0.00 20 999.2
20260506124558 32 135 25.7 25.7 0.00 0.00 0.00 19 999.2
20260506124058 32 135 14.5 19.3 0.00 0.00 0.00 20 999.3
20260506123558 33 112 14.5 22.5 0.00 0.00 0.00 19 999.2
20260506123058 33 135 6.4 22.5 0.00 0.00 0.00 19 999.4
20260506122558 32 112 12.9 22.5 0.00 0.00 0.00 18 999.4
20260506122058 32 112 6.4 22.5 0.00 0.00 0.00 19 999.4
20260506121558 32 112 14.5 29.0 0.00 0.00 0.00 19 999.5
20260506121058 32 135 3.2 24.1 0.00 0.00 0.00 18 999.6
20260506120558 32 112 6.4 22.5 0.00 0.00 0.00 19 999.6
20260506120058 32 112 6.4 22.5 0.00 0.00 0.00 20 999.7
20260506115558 32 135 20.9 22.5 0.00 0.00 0.00 20 999.7
20260506115058 32 135 16.1 29.0 0.00 0.00 0.00 20 999.7
20260506114558 32 135 11.3 25.7 0.00 0.00 0.00 19 999.7
20260506114058 32 112 11.3 24.1 0.00 0.00 0.00 18 999.8
20260506113558 32 135 11.3 20.9 0.00 0.00 0.00 19 999.9
20260506113058 32 135 20.9 24.1 0.00 0.00 0.00 20 1000.0
20260506112558 31 135 12.9 27.4 0.00 0.00 0.00 20 1000.1
20260506112058 31 112 17.7 27.4 0.00 0.00 0.00 19 1000.1
20260506111558 32 112 16.1 20.9 0.00 0.00 0.00 20 1000.1
20260506111058 32 157 16.1 20.9 0.00 0.00 0.00 21 1000.2
20260506110558 31 112 8.0 24.1 0.00 0.00 0.00 21 1000.4
20260506110058 31 112 16.1 24.1 0.00 0.00 0.00 21 1000.2
20260506105558 31 112 22.5 29.0 0.00 0.00 0.00 21 1000.2
20260506105058 32 135 9.7 24.1 0.00 0.00 0.00 21 1000.3
20260506104558 32 157 9.7 22.5 0.00 0.00 0.00 21 1000.4
20260506104058 32 112 9.7 22.5 0.00 0.00 0.00 21 1000.5
20260506103558 33 135 20.9 24.1 0.00 0.00 0.00 21 1000.2
20260506103058 33 112 6.4 16.1 0.00 0.00 0.00 23 1000.4
20260506102558 33 112 0.0 12.9 0.00 0.00 0.00 26 1000.4
20260506102058 32 135 3.2 12.9 0.00 0.00 0.00 27 1000.4
20260506101558 32 135 11.3 11.3 0.00 0.00 0.00 31 1000.5
20260506101058 32 67 8.0 11.3 0.00 0.00 0.00 31 1000.5
20260506100558 32 45 6.4 8.0 0.00 0.00 0.00 32 1000.6
20260506100058 32 112 3.2 9.7 0.00 0.00 0.00 31 1000.7
20260506095558 32 45 0.0 6.4 0.00 0.00 0.00 32 1000.6
20260506095058 32 45 6.4 9.7 0.00 0.00 0.00 33 1000.8
20260506094558 31 90 0.0 9.7 0.00 0.00 0.00 33 1000.8
20260506094058 31 112 1.6 9.7 0.00 0.00 0.00 34 1000.8
20260506093558 31 112 1.6 12.9 0.00 0.00 0.00 35 1000.8
20260506093058 31 112 6.4 9.7 0.00 0.00 0.00 35 1000.9
20260506092558 31 112 0.0 14.5 0.00 0.00 0.00 35 1001.0
20260506092058 31 112 8.0 8.0 0.00 0.00 0.00 36 1000.9
20260506091558 30 112 0.0 9.7 0.00 0.00 0.00 36 1001.0
20260506091058 30 112 6.4 8.0 0.00 0.00 0.00 36 1001.0
20260506090558 30 112 0.0 11.3 0.00 0.00 0.00 36 1001.1
20260506090058 30 90 1.6 8.0 0.00 0.00 0.00 36 1001.1
20260506085558 29 67 6.4 6.4 0.00 0.00 0.00 37 1001.1
20260506085058 29 67 0.0 8.0 0.00 0.00 0.00 37 1001.2
20260506084558 28 90 0.0 8.0 0.00 0.00 0.00 38 1001.1
20260506084058 28 112 0.0 11.3 0.00 0.00 0.00 38 1001.1
20260506083558 28 90 0.0 8.0 0.00 0.00 0.00 38 1001.2
20260506083058 28 112 0.0 6.4 0.00 0.00 0.00 39 1001.2
20260506082558 27 67 6.4 8.0 0.00 0.00 0.00 39 1001.2
20260506082058 27 67 0.0 8.0 0.00 0.00 0.00 40 1001.2
20260506081558 26 67 6.4 6.4 0.00 0.00 0.00 41 1001.4
20260506081058 26 67 3.2 8.0 0.00 0.00 0.00 42 1001.2
20260506080558 26 112 1.6 9.7 0.00 0.00 0.00 42 1001.3
20260506073059 23 135 6.4 8.0 0.00 0.00 0.00 48 1001.3
20260506072558 23 112 8.0 9.7 0.00 0.00 0.00 49 1001.3
20260506072059 22 112 6.4 8.0 0.00 0.00 0.00 50 1001.2
20260506071559 22 112 8.0 8.0 0.00 0.00 0.00 50 1001.3
20260506071059 22 67 0.0 4.8 0.00 0.00 0.00 51 1001.3
20260506070559 21 45 0.0 6.4 0.00 0.00 0.00 52 1001.4
20260506062059 17 135 0.0 8.0 0.00 0.00 0.00 62 1001.4
20260506061559 17 112 0.0 6.4 0.00 0.00 0.00 63 1001.5
20260506061059 17 135 6.4 9.7 0.00 0.00 0.00 64 1001.5
20260506060559 16 112 0.0 8.0 0.00 0.00 0.00 64 1001.6
20260506051059 14 67 0.0 3.2 0.00 0.00 0.00 67 1001.6
20260506050559 14 90 0.0 0.0 0.00 0.00 0.00 67 1001.5
20260506045059 13 45 0.0 4.8 0.00 0.00 0.00 67 1001.5
20260506044559 13 67 0.0 4.8 0.00 0.00 0.00 67 1001.4
20260506044059 12 45 1.6 1.6 0.00 0.00 0.00 67 1001.2
20260506043559 12 67 0.0 0.0 0.00 0.00 0.00 67 1001.3
20260506043059 11 45 0.0 0.0 0.00 0.00 0.00 67 1001.3
20260506042559 10 112 0.0 0.0 0.00 0.00 0.00 66 1001.4
20260506042059 10 112 0.0 0.0 0.00 0.00 0.00 67 1001.2
20260506041559 9 112 0.0 0.0 0.00 0.00 0.00 67 1001.1
20260506041059 8 112 0.0 0.0 0.00 0.00 0.00 67 1001.1
20260506040559 8 112 0.0 0.0 0.00 0.00 0.00 67 1001.2
20260506040059 8 112 0.0 1.6 0.00 0.00 0.00 68 1001.1
20260506035559 8 135 0.0 0.0 0.00 0.00 0.00 68 1001.1
20260506035059 9 135 0.0 0.0 0.00 0.00 0.00 68 1001.1
20260506034559 9 112 0.0 0.0 0.00 0.00 0.00 69 1001.1
20260506034059 9 112 0.0 0.0 0.00 0.00 0.00 69 1001.2
20260506033559 9 67 0.0 0.0 0.00 0.00 0.00 70 1001.1
20260506033059 9 67 0.0 0.0 0.00 0.00 0.00 71 1001.0
20260506032559 10 67 0.0 0.0 0.00 0.00 0.00 71 1001.0
20260506032059 10 67 0.0 0.0 0.00 0.00 0.00 71 1001.0
20260506031559 10 67 0.0 0.0 0.00 0.00 0.00 72 1000.9
20260506031059 10 45 0.0 0.0 0.00 0.00 0.00 72 1000.9
20260506030559 10 45 0.0 0.0 0.00 0.00 0.00 72 1001.0
20260506030059 10 22 0.0 0.0 0.00 0.00 0.00 71 1000.9
20260506025559 10 22 0.0 0.0 0.00 0.00 0.00 70 1000.8
20260506025059 10 45 0.0 0.0 0.00 0.00 0.00 70 1000.8
20260506024559 10 45 0.0 0.0 0.00 0.00 0.00 69 1000.8
20260506024059 11 45 0.0 0.0 0.00 0.00 0.00 69 1000.8
20260506023559 11 45 0.0 0.0 0.00 0.00 0.00 68 1000.8
20260506023059 11 45 0.0 0.0 0.00 0.00 0.00 67 1000.6
20260506022559 11 45 0.0 0.0 0.00 0.00 0.00 66 1000.6
20260506022059 11 45 0.0 0.0 0.00 0.00 0.00 65 1000.5
20260506021559 11 67 0.0 0.0 0.00 0.00 0.00 64 1000.5
20260506021059 12 112 0.0 0.0 0.00 0.00 0.00 62 1000.5
20260506020559 12 112 0.0 0.0 0.00 0.00 0.00 61 1000.4
20260506020059 12 135 0.0 0.0 0.00 0.00 0.00 61 1000.4
20260506015559 13 135 0.0 0.0 0.00 0.00 0.00 61 1000.4
20260506015059 13 135 0.0 0.0 0.00 0.00 0.00 60 1000.5
20260506014559 13 135 0.0 0.0 0.00 0.00 0.00 60 1000.4
20260506014059 13 180 0.0 0.0 0.00 0.00 0.00 59 1000.4
20260506013559 14 180 0.0 4.8 0.00 0.00 0.00 58 1000.4
20260506013059 14 180 0.0 8.0 0.00 0.00 0.00 58 1000.4
20260506012559 15 180 0.0 8.0 0.00 0.00 0.00 58 1000.4
20260506012059 15 157 0.0 9.7 0.00 0.00 0.00 59 1000.4
20260506011559 15 180 9.7 11.3 0.00 0.00 0.00 59 1000.3
20260506011059 14 157 0.0 11.3 0.00 0.00 0.00 59 1000.3
20260506010559 14 135 9.7 9.7 0.00 0.00 0.00 59 1000.3
20260506010059 14 135 6.4 6.4 0.00 0.00 0.00 57 1000.3
20260506005559 14 135 0.0 0.0 0.00 0.00 0.00 57 1000.3
20260506005059 14 135 0.0 0.0 0.00 0.00 0.00 56 1000.0
20260506004559 15 135 0.0 0.0 0.00 0.00 0.00 55 1000.1
20260506004059 15 180 0.0 0.0 0.00 0.00 0.00 54 1000.3
20260506003559 15 180 0.0 0.0 0.00 0.00 0.00 54 1000.3
20260506003059 15 180 0.0 0.0 0.00 0.00 0.00 54 1000.2
20260506002559 16 180 0.0 8.0 0.00 0.00 0.00 54 1000.2
20260506002059 16 135 0.0 16.1 0.00 0.00 0.00 53 1000.2
20260506001559 16 157 8.0 9.7 0.00 0.00 0.00 53 1000.1
20260506001059 16 180 4.8 6.4 0.00 0.00 0.00 52 1000.2
20260506000559 16 180 0.0 8.0 0.00 0.00 0.00 52 1000.1
20260506000059 16 180 4.8 12.9 0.00 0.00 0.00 52 1000.1
20260505235559 16 180 6.4 20.9 0.00 0.00 0.00 53 1000.1
20260505235059 16 202 11.3 14.5 0.00 0.00 0.00 53 1000.1
20260505234559 16 180 4.8 17.7 0.00 0.00 0.00 54 1000.0
20260505234059 16 180 1.6 11.3 0.00 0.00 0.00 54 1000.0
20260505233559 15 202 6.4 8.0 0.00 0.00 0.00 55 1000.0
20260505233059 15 202 9.7 9.7 0.00 0.00 0.00 55 1000.1
20260505232559 15 202 0.0 6.4 0.00 0.00 0.00 55 1000.1
20260505232059 15 180 0.0 4.8 0.00 0.00 0.00 54 1000.1
20260505231559 15 180 0.0 0.0 0.00 0.00 0.00 53 1000.1
20260505231059 15 157 0.0 0.0 0.00 0.00 0.00 52 1000.1
20260505230559 15 157 0.0 0.0 0.00 0.00 0.00 52 1000.1
20260505230059 16 157 0.0 0.0 0.00 0.00 0.00 51 1000.2
20260505225559 16 157 0.0 0.0 0.00 0.00 0.00 50 1000.1
20260505225059 16 157 0.0 0.0 0.00 0.00 0.00 51 1000.1
20260505224559 17 157 0.0 0.0 0.00 0.00 0.00 50 1000.1
20260505224059 17 157 0.0 8.0 0.00 0.00 0.00 50 1000.0
20260505223559 17 180 8.0 8.0 0.00 0.00 0.00 50 1000.0
20260505223059 17 157 6.4 8.0 0.00 0.00 0.00 50 1000.0
20260505222559 17 157 6.4 9.7 0.00 0.00 0.00 50 1000.1
20260505222059 17 135 4.8 11.3 0.00 0.00 0.00 51 1000.0
20260505221559 17 157 6.4 8.0 0.00 0.00 0.00 51 1000.1
20260505221059 17 157 3.2 6.4 0.00 0.00 0.00 51 1000.1
20260505220559 17 157 1.6 8.0 0.00 0.00 0.00 51 1000.1
20260505220059 17 157 6.4 6.4 0.00 0.00 0.00 51 1000.1
20260505215559 17 157 3.2 4.8 0.00 0.00 0.00 51 1000.2
20260505215059 16 157 0.0 3.2 0.00 0.00 0.00 51 1000.2
20260505214559 16 157 0.0 6.4 0.00 0.00 0.00 51 1000.2
20260505214059 16 157 4.8 6.4 0.00 0.00 0.00 51 1000.1
20260505213559 16 157 0.0 6.4 0.00 0.00 0.00 51 1000.1
20260505213059 16 157 0.0 6.4 0.00 0.00 0.00 52 1000.1
20260505212559 16 135 0.0 6.4 0.00 0.00 0.00 52 1000.1
20260505212059 16 157 3.2 8.0 0.00 0.00 0.00 52 1000.1
20260505211559 16 135 0.0 6.4 0.00 0.00 0.00 53 1000.1
20260505211059 15 135 0.0 4.8 0.00 0.00 0.00 53 1000.1
20260505210559 15 135 0.0 4.8 0.00 0.00 0.00 52 1000.1
20260505210059 15 112 0.0 0.0 0.00 0.00 0.00 52 1000.2
20260505205559 15 112 0.0 0.0 0.00 0.00 0.00 53 1000.3
20260505205059 14 135 0.0 0.0 0.00 0.00 0.00 53 1000.3
20260505204559 14 157 0.0 0.0 0.00 0.00 0.00 53 1000.2
20260505204059 13 157 0.0 0.0 0.00 0.00 0.00 53 1000.2
20260505203601 13 157 0.0 0.0 0.00 0.00 0.00 53 1000.2
20260505203059 13 157 0.0 0.0 0.00 0.00 0.00 52 1000.1
20260505202559 13 157 0.0 0.0 0.00 0.00 0.00 51 1000.2
20260505202059 13 157 0.0 0.0 0.00 0.00 0.00 50 1000.1
20260505201559 13 157 0.0 0.0 0.00 0.00 0.00 50 1000.2
20260505201059 14 157 0.0 0.0 0.00 0.00 0.00 49 1000.1
20260505200559 15 157 0.0 0.0 0.00 0.00 0.00 48 1000.2
20260505200059 15 157 0.0 0.0 0.00 0.00 0.00 48 1000.1
20260505195559 15 157 0.0 0.0 0.00 0.00 0.00 49 1000.1
20260505195059 15 157 0.0 0.0 0.00 0.00 0.00 49 1000.1
20260505194559 15 157 0.0 0.0 0.00 0.00 0.00 50 1000.0
20260505194059 14 135 0.0 0.0 0.00 0.00 0.00 50 1000.1
20260505193559 14 135 0.0 0.0 0.00 0.00 0.00 50 1000.1
20260505193059 14 135 0.0 0.0 0.00 0.00 0.00 49 1000.0
20260505192559 15 135 0.0 0.0 0.00 0.00 0.00 48 1000.0
20260505192059 15 135 0.0 0.0 0.00 0.00 0.00 48 999.9
20260505191559 15 135 0.0 0.0 0.00 0.00 0.00 48 999.8
20260505191059 15 135 0.0 0.0 0.00 0.00 0.00 48 999.8
20260505190559 15 135 0.0 0.0 0.00 0.00 0.00 48 999.9
20260505190059 15 135 0.0 0.0 0.00 0.00 0.00 47 999.8
20260505185559 15 135 0.0 0.0 0.00 0.00 0.00 47 999.9
20260505185059 15 135 0.0 0.0 0.00 0.00 0.00 46 999.7
20260505184559 15 135 0.0 0.0 0.00 0.00 0.00 46 999.7
20260505184059 15 135 0.0 0.0 0.00 0.00 0.00 46 999.7
20260505183559 15 135 0.0 0.0 0.00 0.00 0.00 45 999.7
20260505183059 16 135 0.0 0.0 0.00 0.00 0.00 45 999.9
20260505182559 16 135 0.0 0.0 0.00 0.00 0.00 44 999.8
20260505182059 16 135 0.0 0.0 0.00 0.00 0.00 44 999.8
20260505181559 16 135 0.0 0.0 0.00 0.00 0.00 43 999.7
20260505181059 16 135 0.0 0.0 0.00 0.00 0.00 43 999.8
20260505180559 17 135 0.0 0.0 0.00 0.00 0.00 42 999.6
20260505180059 17 135 0.0 0.0 0.00 0.00 0.00 42 999.6
20260505175559 18 135 0.0 0.0 0.00 0.00 0.00 41 999.4
20260505175059 18 135 0.0 0.0 0.00 0.00 0.00 40 999.5
20260505174559 19 135 0.0 0.0 0.00 0.00 0.00 39 999.5
20260505174059 20 135 0.0 3.2 0.00 0.00 0.00 40 999.4
20260505173559 20 135 0.0 4.8 0.00 0.00 0.00 38 999.5
20260505173059 20 135 1.6 6.4 0.00 0.00 0.00 37 999.3
20260505172559 21 135 0.0 4.8 0.00 0.00 0.00 37 999.3
20260505172059 22 135 0.0 0.0 0.00 0.00 0.00 35 999.2
20260505171559 22 135 0.0 6.4 0.00 0.00 0.00 34 999.2
20260505171059 23 135 0.0 0.0 0.00 0.00 0.00 33 999.1
20260505170600 23 135 0.0 6.4 0.00 0.00 0.00 32 999.0
20260505170059 23 135 3.2 6.4 0.00 0.00 0.00 31 999.0
20260505165559 23 112 0.0 8.0 0.00 0.00 0.00 30 999.2
20260505165059 24 112 3.2 9.7 0.00 0.00 0.00 30 999.1
20260505164559 24 135 3.2 8.0 0.00 0.00 0.00 29 999.1
20260505164059 25 112 0.0 8.0 0.00 0.00 0.00 29 999.1
20260505163559 25 135 6.4 8.0 0.00 0.00 0.00 28 999.0
20260505163059 26 135 4.8 8.0 0.00 0.00 0.00 27 999.1
20260505162559 26 112 8.0 9.7 0.00 0.00 0.00 27 999.0
20260505162059 27 112 6.4 8.0 0.00 0.00 0.00 26 999.1
20260505161559 28 112 3.2 6.4 0.00 0.00 0.00 26 999.0
20260505161059 28 135 0.0 8.0 0.00 0.00 0.00 25 999.0
20260505160559 29 135 6.4 11.3 0.00 0.00 0.00 23 999.1
20260505153059 32 112 3.2 8.0 0.00 0.00 0.00 20 999.2
20260505152559 32 112 0.0 6.4 0.00 0.00 0.00 20 999.2
20260505152059 32 112 0.0 9.7 0.00 0.00 0.00 19 999.2
20260505151559 32 112 6.4 14.5 0.00 0.00 0.00 19 999.2
20260505151059 33 112 4.8 9.7 0.00 0.00 0.00 19 999.1
20260505150559 33 90 4.8 9.7 0.00 0.00 0.00 19 999.3
20260505140559 35 112 8.0 9.7 0.00 0.00 0.00 17 1000.0